SL-8 DEB

Satellite information

Favourite Embed

Satellite Type and Status

DEBRISIN ORBIT

Key statistics

Satellite SL-8 DEB at a glance.

Uptime

19625

Days in orbit

Revolutions

≈ 14.9

Per day

Orbit

LEO

Low Earth Orbit

Inclination

74.0

Latest

Satellite identification and parameters

Extended collection of information and parameters for SL-8 DEB.

Object identification

Identified? True

Debris? True

Object name: SL-8 DEB

International designator: 1971-114C

Object number (NORAD): 5778

Object ID (CCSDS): 5778

Country: COMMONWEALTH OF INDEPENDENT STATES (CIS)

Current information (Y/N): Y

RCS size: SMALL

Orbital parameters

Period: 96.423 minutes

Inclination: 74.0051 deg

SMA: 6965.4 km

Apoapsis: 592.021 km

Periapsis: 582.508 km

RAAN: 194.7553 deg

Eccentricy: 0.0006829

Argument of periapsis: 326.9441 deg

Mean anomaly: 33.1314 deg

Mean motion: 14.93426025 rev/day

Mean motion (dot): 0.00009302 rev/day2

B* drag term: 0.00088727181 1/REarth

Two-line elements (TLE)

Creation date: Sept. 8, 2025, 6:18 p.m.

Reference frame: TEME

Reference center: EARTH

Epoch: Sept. 8, 2025, 1:23 p.m. UTC

TLE line 0: 0 SL-8 DEB

TLE line 1: 1 05778U 71114C 25251.55814935 .00009302 00000-0 88727-3 0 9995

TLE line 2: 2 05778 74.0051 194.7553 0006829 326.9441 33.1314 14.93426025857285

Live tracking on map

Real-time ground track for satellite SL-8 DEB.

In-orbit conjunctions

A list of the most updated potential collisions computed for object SL-8 DEB.

Target Orbit TCA Probability of collision Miss distance Type
LANDSAT 5 SSO 2025-06-09 13:18:44 0.0136377 71.0 (m) PAYLOAD
OBJECT B SSO 2025-05-29 10:57:25 0.0001690711 262.0 (m) UNKNOWN

Associated space launch

The DS-P1-Yu series of satellites was used to calibrate space surveillance and early warning radars.

SL-8 DEB was lifted into orbit during the mission ‘Kosmos 11K63 | DS-P1-Yu 49’, on board a Kosmos 11K63 space rocket.

The launch took place on Dec. 17, 1971, 10:39 a.m. from 133/3 (133L).

For more information about the launch, click the button.

Launch to space Kosmos 11K63 | DS-P1-Yu 49
Kosmos 11K63 | DS-P1-Yu 49

Agency: N/A

Status: Launch Successful

Launch date: Dec. 17, 1971, 10:39 a.m. UTC

Rocket: Kosmos 11K63

Launch pad: 133/3 (133L)

Location: Plesetsk Cosmodrome, Russian Federation

...

Latest news about this satellite

There are no fresh news available about this satellite. Check back as we update our databases every day.


Newsletter sign-up

Weekly statistics, charts and insights to help you stay on top of the space industry.